DW5086 Weather Reports


time (UTC)temp
C
wind
direction
speed
KPH
gust
KPH
rain 1hr
cm
rain 24hr
cm
rain mn
cm
humidity
%
barometer
mb
20260505120105 6 0 9.7 16.1 0.00 0.00 0.00 66 1005.7
20260505110605 5 0 4.8 9.7 0.00 0.00 0.00 69 1005.3
20260505110106 5 0 3.2 14.5 0.00 0.00 0.00 68 1005.3
20260505090605 7 0 4.8 8.0 0.00 0.00 0.00 59 1004.2
20260505080605 7 0 1.6 4.8 0.00 0.00 0.00 56 1003.3
20260505080105 8 0 1.6 22.5 0.00 0.00 0.00 55 1003.3
20260505070605 8 0 6.4 22.5 0.00 0.00 0.00 57 1003.0
20260505070105 8 0 4.8 27.4 0.00 0.00 0.00 57 1003.0
20260505060105 10 0 9.7 22.5 0.00 0.00 0.00 53 1002.8
20260505050605 11 0 9.7 22.5 0.00 0.00 0.00 53 1001.8
20260505040605 12 0 12.9 27.4 0.00 0.00 0.00 55 1000.4
20260505040105 12 0 8.0 27.4 0.00 0.00 0.00 55 1000.3
20260505030605 13 0 11.3 33.8 0.00 0.00 0.00 50 998.7
20260505020605 15 0 6.4 20.9 0.00 0.00 0.00 48 997.8
20260505020113 15 0 4.8 33.8 0.00 0.00 0.00 46 997.6
20260505010605 17 0 12.9 32.2 0.00 0.00 0.00 40 996.3
20260505010106 17 0 22.5 38.6 0.00 0.00 0.00 38 996.1
20260505000605 18 0 20.9 32.2 0.00 0.00 0.00 39 995.1
20260505000104 18 0 19.3 40.2 0.00 0.00 0.00 40 995.0
20260504230605 20 0 27.4 41.8 0.00 0.00 0.00 37 994.6
20260504230105 20 0 29.0 45.1 0.00 0.00 0.00 38 994.6
20260504220604 22 0 14.5 24.1 0.00 0.00 0.00 41 993.9
20260504220105 22 0 25.7 41.8 0.00 0.00 0.00 40 993.9
20260504210105 23 0 25.7 46.7 0.00 0.00 0.00 42 993.2
20260504200605 23 0 16.1 38.6 0.00 0.00 0.00 42 993.2
20260504200105 23 0 19.3 45.1 0.00 0.00 0.00 42 993.2
20260504180605 23 0 25.7 33.8 0.00 0.00 0.00 39 993.5
20260504180105 23 0 17.7 48.3 0.00 0.00 0.00 40 993.5
20260504170605 22 0 22.5 41.8 0.00 0.00 0.00 38 994.1
20260504170105 22 0 20.9 45.1 0.00 0.00 0.00 39 994.0
20260504160105 21 0 16.1 40.2 0.00 0.00 0.00 42 994.9
20260504140604 18 0 9.7 22.5 0.00 0.00 0.00 46 996.4
20260504140104 17 0 9.7 24.1 0.00 0.00 0.00 46 996.5
20260504130605 15 0 8.0 16.1 0.00 0.00 0.00 53 997.4
20260504130104 15 0 9.7 24.1 0.00 0.00 0.00 55 997.6